[[{"header":{"parameterUnit":"m.s-1","parameterCategory":2,"la1":30.2992,"la2":30.254,"lo1":-89.0895,"lo2":-89.0443,"dy":0.0025,"dx":0.0025,"nx":19,"ny":19,"refTime":"2026-03-25T21:00:00:Z","depth":"0","parameterNumber":2,"parameterNumberName":"U-component_of_CURRENTS"},"data":[0,0,0,-0.2252,-0.2254,-0.2347,-0.2347,-0.2376,-0.2376,0,0,0,0,0,0,0,0,0,0,0,-0.2205,-0.2206,-0.2252,-0.2254,-0.2347,-0.2347,-0.2376,-0.2376,0,0,0,0,0,0,0,0,0,0,0,-0.2205,-0.2206,-0.2206,-0.2254,-0.2347,-0.2347,-0.2376,-0.2328,0,0,0,0,0,0,0,0,0,0,-0.2248,-0.2213,-0.2205,-0.2206,-0.2255,-0.2347,-0.2347,-0.2326,-0.233,-0.231,0,-0.232,0,-0.2355,-0.2376,-0.2376,0,0,0,-0.225,-0.2209,-0.2244,-0.2206,-0.2256,-0.2347,-0.2304,-0.2329,-0.2334,-0.2315,-0.2321,-0.2323,-0.2355,-0.2376,-0.2376,-0.2383,-0.2383,0,0,-0.2245,-0.2213,-0.2241,-0.2247,-0.2273,-0.2301,-0.2307,-0.2333,-0.2327,-0.2321,-0.2324,-0.2356,-0.2376,-0.2376,-0.2383,-0.2383,0,0,0,-0.2233,-0.2209,-0.2245,-0.2244,-0.2272,-0.2304,-0.2311,-0.2326,-0.234,-0.2325,-0.2356,-0.2376,-0.2377,-0.2383,-0.2383,-0.2519,0,0,0,-0.223,-0.2203,-0.2242,-0.2223,-0.2272,-0.2311,-0.2302,-0.2338,-0.2343,-0.2356,-0.2376,-0.2377,-0.2383,-0.2383,-0.2515,-0.2618,0,0,0,-0.2202,-0.22,-0.2211,-0.2221,-0.2266,-0.2313,-0.2329,-0.234,-0.2361,-0.2376,-0.2377,-0.2383,-0.2383,-0.2512,-0.261,-0.27,0,0,0,-0.2166,-0.22,-0.221,-0.2273,-0.2265,-0.2362,-0.2329,-0.2399,-0.2422,-0.2377,-0.2383,-0.2383,-0.2511,-0.2605,-0.2695,-0.2383,-0.2384,0,0,-0.2198,-0.2203,-0.225,-0.2263,-0.2373,-0.235,-0.2451,-0.2467,-0.2405,-0.2367,-0.2368,-0.2517,-0.2609,-0.2699,-0.239,-0.239,0,0,0,-0.2257,-0.2282,-0.232,-0.2385,-0.2446,-0.2515,-0.2515,-0.2516,-0.2509,-0.2419,-0.248,-0.2534,-0.2588,-0.2385,-0.2385,-0.229,-0.2383,-0.2383,-0.2383,-0.2231,-0.2309,-0.2389,-0.248,-0.2544,-0.2624,-0.2691,-0.2673,-0.2579,-0.2588,-0.2617,-0.2745,-0.2525,-0.2523,-0.2428,-0.256,-0.256,-0.2561,-0.2561,-0.2279,-0.2324,-0.2435,-0.253,-0.2625,-0.2693,-0.2812,-0.2804,-0.2859,-0.2727,-0.2771,-0.2502,-0.2531,-0.2429,-0.2569,-0.2568,-0.2567,-0.2566,-0.2565,-0.2231,-0.2265,-0.2337,-0.2487,-0.2628,-0.2741,-0.2869,-0.297,-0.2977,-0.3054,-0.2765,-0.2757,-0.2696,-0.3025,-0.3026,-0.3027,-0.3027,-0.3028,-0.3028,-0.213,-0.2219,-0.228,-0.2453,-0.2547,-0.2706,-0.2908,-0.2932,-0.2928,-0.2913,-0.2908,-0.2689,-0.2887,-0.2901,-0.3042,-0.3039,-0.3038,-0.3036,-0.3035,-0.2057,-0.2083,-0.2181,-0.2267,-0.2496,-0.2519,-0.2744,-0.268,-0.2788,-0.2708,-0.2609,-0.2828,-0.2766,-0.2757,-0.2765,-0.2865,-0.2865,-0.2865,-0.2864,-0.1965,-0.2001,-0.2084,-0.2196,-0.2338,-0.2434,-0.2253,-0.2262,-0.2335,-0.2358,-0.2497,-0.228,-0.2291,-0.2194,-0.2198,-0.2192,-0.2144,-0.2143,-0.2143,-0.1901,-0.1938,-0.1948,-0.2072,-0.224,-0.2202,-0.1915,-0.1841,-0.1993,-0.2122,-0.2451,-0.2481,-0.2176,-0.22,-0.2045,-0.2058,-0.2047,0,0]},{"header":{"parameterUnit":"m.s-1","parameterCategory":2,"la1":30.2992,"la2":30.254,"lo1":-89.0895,"lo2":-89.0443,"dy":0.0025,"dx":0.0025,"nx":19,"ny":19,"refTime":"2026-03-25T21:00:00:Z","depth":"0","parameterNumber":3,"parameterNumberName":"V-component_of_CURRENTS"},"data":[0,0,0,-0.0516,-0.0511,-0.0271,-0.027,0.0,0.0002,0,0,0,0,0,0,0,0,0,0,0,-0.0609,-0.0608,-0.0516,-0.0511,-0.0271,-0.027,-0.0,0.0002,0,0,0,0,0,0,0,0,0,0,0,-0.061,-0.0608,-0.0607,-0.051,-0.0271,-0.027,-0.0001,-0.0169,0,0,0,0,0,0,0,0,0,0,-0.0397,-0.0502,-0.0609,-0.0607,-0.0509,-0.0272,-0.027,-0.0177,-0.0159,-0.0123,0,-0.0096,0,-0.0041,0.0018,0.0019,0,0,0,-0.0497,-0.0518,-0.0433,-0.0607,-0.0507,-0.0272,-0.0376,-0.0166,-0.0146,-0.01,-0.0092,-0.0081,-0.0037,0.002,0.0021,0.0207,0.0207,0,0,-0.0511,-0.0579,-0.0447,-0.0421,-0.0457,-0.0383,-0.0368,-0.0154,-0.0151,-0.0091,-0.0074,-0.0032,0.0022,0.0023,0.0207,0.0207,0,0,0,-0.0558,-0.0589,-0.0508,-0.0433,-0.0386,-0.0377,-0.0359,-0.0161,-0.0128,-0.0071,-0.0029,0.0023,0.0026,0.0207,0.0207,0.0132,0,0,0,-0.0565,-0.0616,-0.0515,-0.0554,-0.0391,-0.027,-0.0372,-0.0143,-0.0117,-0.0031,0.0023,0.0028,0.0206,0.0207,0.0133,0.0079,0,0,0,-0.0618,-0.0622,-0.0593,-0.0558,-0.0456,-0.0272,-0.0227,-0.0136,-0.0092,0.0019,0.0029,0.0206,0.0207,0.0134,0.0082,0.0106,0,0,0,-0.0694,-0.0682,-0.0596,-0.0559,-0.0459,-0.0303,-0.0227,-0.0113,-0.0025,0.0024,0.0206,0.0207,0.0135,0.0085,0.0108,0.0066,0.0056,0,0,-0.0723,-0.0687,-0.066,-0.0577,-0.0464,-0.0334,-0.0217,-0.0081,-0.0003,0.0135,0.0141,0.0133,0.0083,0.0107,0.01,0.0089,0,0,0,-0.0697,-0.0678,-0.0628,-0.0539,-0.0402,-0.0287,-0.0128,-0.0061,0.0058,0.0053,0.0166,0.0137,0.0155,0.0134,0.0125,0.0378,0.021,0.021,0.021,-0.0821,-0.072,-0.0665,-0.0525,-0.0429,-0.0237,-0.015,-0.0027,0.0059,0.0089,0.0101,0.0098,0.0075,0.0068,0.0329,0.0142,0.0142,0.0142,0.0142,-0.086,-0.0821,-0.0699,-0.0618,-0.0472,-0.0364,-0.0163,-0.0093,0.0034,0.0076,0.0098,0.0085,0.0054,0.0336,0.0138,0.0138,0.0139,0.0139,0.014,-0.0943,-0.091,-0.0855,-0.0747,-0.0642,-0.0466,-0.0381,-0.0217,-0.006,-0.003,0.0007,0.0008,0.0237,0.0002,0.0002,0.0002,0.0002,0.0002,0.0002,-0.1056,-0.0989,-0.0991,-0.0876,-0.0839,-0.0738,-0.0509,-0.0411,-0.0213,-0.0082,-0.0081,0.0272,0.0056,0.0039,-0.0001,-0.0,0.0,0.0,0.0,-0.1114,-0.1127,-0.1142,-0.1128,-0.1034,-0.0977,-0.0775,-0.0544,-0.0391,-0.0309,0.0192,-0.008,-0.0053,-0.0045,-0.0063,-0.0126,-0.0126,-0.0126,-0.0126,-0.1192,-0.1184,-0.125,-0.1267,-0.1233,-0.1084,-0.0968,-0.067,-0.0143,0.0165,0.0287,0.0341,0.0335,0.0391,0.0389,0.0384,0.0435,0.0437,0.0438,-0.1224,-0.1256,-0.1321,-0.1338,-0.1309,-0.1188,-0.1051,-0.0679,0.0112,0.0493,0.0654,0.0629,0.0744,0.0714,0.0827,0.0803,0.0803,0,0]}],[{"header":{"parameterUnit":"m.s-1","parameterCategory":2,"la1":30.2992,"la2":30.254,"lo1":-89.0895,"lo2":-89.0443,"dy":0.0025,"dx":0.0025,"nx":19,"ny":19,"refTime":"2026-03-25T21:00:00:Z","depth":"2","parameterNumber":2,"parameterNumberName":"U-component_of_CURRENTS"},"data":[0,0,0,-0.1793,-0.1795,-0.1979,-0.1981,-0.2138,-0.2138,0,0,0,0,0,0,0,0,0,0,0,-0.174,-0.174,-0.1793,-0.1795,-0.1979,-0.1981,-0.2138,-0.2138,0,0,0,0,0,0,0,0,0,0,0,-0.174,-0.174,-0.174,-0.1795,-0.1979,-0.1981,-0.2137,-0.2033,0,0,0,0,0,0,0,0,0,0,-0.187,-0.1837,-0.174,-0.174,-0.1796,-0.1979,-0.1981,-0.203,-0.2039,-0.2011,0,-0.2008,0,-0.204,-0.2141,-0.2141,0,0,0,-0.1858,-0.1829,-0.1836,-0.174,-0.1796,-0.1978,-0.1914,-0.2036,-0.2047,-0.2023,-0.201,-0.2017,-0.2042,-0.2141,-0.2141,-0.2204,-0.2204,0,0,-0.1848,-0.1824,-0.1828,-0.1841,-0.18,-0.1907,-0.1919,-0.2045,-0.2059,-0.2011,-0.2021,-0.2045,-0.2141,-0.2142,-0.2204,-0.2204,0,0,0,-0.1776,-0.1817,-0.1826,-0.1834,-0.1854,-0.1911,-0.1925,-0.2056,-0.2045,-0.2023,-0.2047,-0.2142,-0.2142,-0.2203,-0.2204,-0.2264,0,0,0,-0.1773,-0.1769,-0.182,-0.1816,-0.185,-0.1972,-0.1933,-0.2038,-0.2053,-0.2046,-0.2142,-0.2143,-0.2203,-0.2204,-0.2262,-0.2339,0,0,0,-0.174,-0.1768,-0.1766,-0.1812,-0.1858,-0.1971,-0.1975,-0.2044,-0.2063,-0.2141,-0.2143,-0.2203,-0.2203,-0.2259,-0.2333,-0.2319,0,0,0,-0.1744,-0.1771,-0.1766,-0.1854,-0.1855,-0.1992,-0.1975,-0.2097,-0.2172,-0.2142,-0.2203,-0.2204,-0.2259,-0.233,-0.2317,-0.2138,-0.2135,0,0,-0.1785,-0.1776,-0.1843,-0.1842,-0.1979,-0.1973,-0.2121,-0.2192,-0.2167,-0.2165,-0.2169,-0.2262,-0.2333,-0.2319,-0.2189,-0.2184,0,0,0,-0.1868,-0.1905,-0.196,-0.2036,-0.2102,-0.2176,-0.2218,-0.2235,-0.2269,-0.2198,-0.2263,-0.2307,-0.2295,-0.2182,-0.2179,-0.2208,-0.2208,-0.2208,-0.2208,-0.1885,-0.1964,-0.2074,-0.216,-0.2237,-0.2313,-0.2389,-0.2393,-0.2332,-0.2344,-0.2354,-0.2394,-0.2273,-0.2269,-0.2325,-0.2325,-0.2325,-0.2326,-0.2326,-0.1976,-0.2043,-0.2138,-0.2252,-0.2303,-0.2382,-0.2488,-0.2478,-0.2504,-0.2445,-0.2426,-0.2251,-0.2268,-0.2331,-0.233,-0.2329,-0.2329,-0.2328,-0.2328,-0.2003,-0.2026,-0.2097,-0.2217,-0.2328,-0.2413,-0.2496,-0.2588,-0.2561,-0.2587,-0.2363,-0.2359,-0.243,-0.2508,-0.2508,-0.2508,-0.2508,-0.2509,-0.2509,-0.1946,-0.2025,-0.2059,-0.2201,-0.2257,-0.235,-0.2514,-0.2517,-0.2485,-0.2451,-0.2447,-0.2455,-0.2449,-0.244,-0.2513,-0.2513,-0.2512,-0.2512,-0.2511,-0.1937,-0.1921,-0.2003,-0.2046,-0.2159,-0.2128,-0.2329,-0.2283,-0.2328,-0.2258,-0.2354,-0.2357,-0.2319,-0.2317,-0.2304,-0.2339,-0.2339,-0.2339,-0.2339,-0.1846,-0.1873,-0.1896,-0.1949,-0.1955,-0.2021,-0.184,-0.1867,-0.2002,-0.2046,-0.2059,-0.1962,-0.1974,-0.1912,-0.192,-0.1898,-0.1827,-0.1826,-0.1825,-0.176,-0.1801,-0.1762,-0.1828,-0.1843,-0.1741,-0.1528,-0.1478,-0.1604,-0.1808,-0.2001,-0.2299,-0.2185,-0.2194,-0.2121,-0.2126,-0.2098,0,0]},{"header":{"parameterUnit":"m.s-1","parameterCategory":2,"la1":30.2992,"la2":30.254,"lo1":-89.0895,"lo2":-89.0443,"dy":0.0025,"dx":0.0025,"nx":19,"ny":19,"refTime":"2026-03-25T21:00:00:Z","depth":"2","parameterNumber":3,"parameterNumberName":"V-component_of_CURRENTS"},"data":[0,0,0,0.0029,0.003,0.0076,0.0077,0.0216,0.0217,0,0,0,0,0,0,0,0,0,0,0,0.0017,0.0016,0.0029,0.003,0.0076,0.0077,0.0216,0.0217,0,0,0,0,0,0,0,0,0,0,0,0.0017,0.0016,0.0016,0.003,0.0076,0.0077,0.0215,0.0165,0,0,0,0,0,0,0,0,0,0,0.0112,0.0078,0.0017,0.0016,0.003,0.0076,0.0077,0.0162,0.0168,0.0211,0,0.0206,0,0.0207,0.0226,0.0227,0,0,0,0.0049,0.0073,0.0085,0.0016,0.003,0.0076,0.0061,0.0165,0.0172,0.022,0.0208,0.0212,0.0209,0.0227,0.0228,0.0337,0.0337,0,0,0.0046,0.0033,0.0079,0.0088,0.0028,0.0059,0.0062,0.0169,0.0172,0.0208,0.0215,0.0211,0.0228,0.0229,0.0336,0.0337,0,0,0,0.0026,0.0031,0.0039,0.0083,0.0081,0.006,0.0063,0.0168,0.017,0.0217,0.0213,0.0229,0.0231,0.0336,0.0337,0.0223,0,0,0,0.0025,0.0017,0.0037,0.0031,0.0078,0.0113,0.006,0.0163,0.0174,0.0212,0.0229,0.0232,0.0336,0.0336,0.0226,0.016,0,0,0,0.0017,0.0017,0.0017,0.003,0.004,0.011,0.0119,0.0165,0.0172,0.0227,0.0233,0.0336,0.0336,0.0228,0.0166,0.0162,0,0,0,0.001,-0.0026,0.0016,-0.0029,0.004,0.0045,0.0118,0.0131,0.0167,0.023,0.0336,0.0337,0.0229,0.0169,0.0165,0.0162,0.0149,0,0,-0.0047,-0.0033,-0.0064,-0.0026,-0.007,0.0041,0.0045,0.0118,0.0197,0.031,0.0312,0.0225,0.0166,0.0163,0.0182,0.0168,0,0,0,-0.0091,-0.0128,-0.0128,-0.0146,-0.0101,-0.0049,0.0042,0.0102,0.0187,0.0218,0.0264,0.0231,0.0232,0.0238,0.0227,0.0338,0.0338,0.0338,0.0338,-0.0192,-0.0195,-0.0261,-0.0251,-0.0221,-0.0107,-0.0046,0.0065,0.0145,0.017,0.0168,0.0125,0.013,0.0122,0.0212,0.0212,0.0211,0.0211,0.0211,-0.0346,-0.0409,-0.0382,-0.0454,-0.0359,-0.0325,-0.0137,-0.0059,0.0055,0.0114,0.0121,0.0154,0.0104,0.0203,0.0204,0.0205,0.0206,0.0207,0.0207,-0.0451,-0.0486,-0.0526,-0.0606,-0.059,-0.0464,-0.0393,-0.0222,-0.0074,-0.0052,0.0006,0.0009,0.0043,-0.004,-0.0041,-0.0041,-0.0041,-0.0042,-0.0042,-0.0551,-0.0591,-0.0704,-0.076,-0.0788,-0.0732,-0.0537,-0.0435,-0.0247,-0.0116,-0.0115,0.0041,0.0049,0.0032,-0.0047,-0.0046,-0.0045,-0.0045,-0.0044,-0.0717,-0.0717,-0.0897,-0.0962,-0.0995,-0.0935,-0.0771,-0.0544,-0.0416,-0.0334,-0.0119,-0.0115,-0.0072,-0.0061,-0.0078,-0.0181,-0.0181,-0.0181,-0.0181,-0.0807,-0.0828,-0.1053,-0.1149,-0.1155,-0.1018,-0.0891,-0.0631,-0.0357,-0.0194,-0.0193,-0.0146,-0.0141,-0.0097,-0.0085,-0.01,-0.021,-0.021,-0.021,-0.0916,-0.0982,-0.1136,-0.1221,-0.1218,-0.1069,-0.0922,-0.0615,-0.0252,-0.021,-0.0187,-0.0185,-0.0112,-0.0105,-0.0028,-0.0014,-0.0034,0,0]}],[{"header":{"parameterUnit":"m.s-1","parameterCategory":2,"la1":30.2992,"la2":30.254,"lo1":-89.0895,"lo2":-89.0443,"dy":0.0025,"dx":0.0025,"nx":19,"ny":19,"refTime":"2026-03-25T21:00:00:Z","depth":"4","parameterNumber":2,"parameterNumberName":"U-component_of_CURRENTS"},"data":[0,0,0,-0.1223,-0.1226,-0.1352,-0.1352,-0.1444,-0.1445,0,0,0,0,0,0,0,0,0,0,0,-0.1183,-0.1184,-0.1223,-0.1226,-0.1352,-0.1352,-0.1444,-0.1445,0,0,0,0,0,0,0,0,0,0,0,-0.1182,-0.1184,-0.1185,-0.1227,-0.1352,-0.1353,-0.1444,-0.1366,0,0,0,0,0,0,0,0,0,0,-0.1253,-0.1224,-0.1183,-0.1185,-0.1227,-0.1352,-0.1353,-0.1363,-0.1371,-0.1367,0,-0.1395,0,-0.1419,-0.1449,-0.145,0,0,0,-0.1227,-0.1218,-0.1252,-0.1185,-0.1228,-0.1351,-0.1295,-0.1368,-0.1377,-0.1377,-0.1396,-0.14,-0.1421,-0.145,-0.145,-0.155,-0.1551,0,0,-0.122,-0.1203,-0.1247,-0.1258,-0.127,-0.1291,-0.1299,-0.1374,-0.1385,-0.1396,-0.1403,-0.1422,-0.145,-0.1451,-0.1549,-0.155,0,0,0,-0.1199,-0.1198,-0.1232,-0.1254,-0.1281,-0.1295,-0.1304,-0.1382,-0.1394,-0.1404,-0.1423,-0.1451,-0.1451,-0.1549,-0.155,-0.1569,0,0,0,-0.1195,-0.1186,-0.1229,-0.122,-0.128,-0.1342,-0.131,-0.1389,-0.1399,-0.1423,-0.1451,-0.1452,-0.1548,-0.1549,-0.1567,-0.1563,0,0,0,-0.1175,-0.1184,-0.1201,-0.1219,-0.1273,-0.1342,-0.1359,-0.1392,-0.141,-0.145,-0.1452,-0.1548,-0.1549,-0.1565,-0.156,-0.1615,0,0,0,-0.1148,-0.1173,-0.1201,-0.1234,-0.1272,-0.134,-0.1359,-0.1414,-0.1449,-0.1451,-0.1548,-0.155,-0.1565,-0.1559,-0.1613,-0.1439,0,0,0,-0.1158,-0.1174,-0.1191,-0.1219,-0.1267,-0.1322,-0.1393,-0.1447,-0.147,-0.1517,-0.152,-0.1568,-0.156,-0.1615,-0.1524,0,0,0,0,-0.1179,-0.1188,-0.1208,-0.1247,-0.1304,-0.1375,-0.1439,-0.148,-0.1551,-0.1499,-0.1591,-0.1586,-0.162,-0.1513,-0.1557,-0.1556,-0.1556,-0.1556,-0.1556,-0.1149,-0.1181,-0.1211,-0.1265,-0.1319,-0.1418,-0.1481,-0.1552,-0.157,-0.1616,-0.162,-0.1696,-0.1585,-0.1647,-0.1647,-0.1647,-0.1647,-0.1647,-0.1648,-0.1128,-0.1131,-0.1204,-0.1244,-0.1335,-0.1409,-0.1536,-0.1579,-0.1681,-0.1672,-0.1705,-0.1562,-0.165,-0.165,-0.1649,-0.1649,-0.1649,-0.1649,-0.1648,-0.1066,-0.1076,-0.1122,-0.1194,-0.1286,-0.1403,-0.1507,-0.1593,-0.169,-0.1727,-0.1647,-0.1723,-0.1702,-0.1763,-0.1764,-0.1764,-0.1764,-0.1764,-0.1764,-0.0972,-0.1023,-0.1036,-0.1133,-0.1185,-0.1291,-0.1488,-0.1585,-0.1699,-0.1651,-0.1747,-0.1735,-0.1732,-0.171,-0.1768,-0.1767,-0.1767,-0.1767,-0.1766,-0.0859,-0.0893,-0.09,-0.0939,-0.1063,-0.115,-0.1356,-0.1537,-0.1632,-0.1651,-0.1621,-0.1627,-0.1608,-0.1608,-0.158,-0.1602,-0.16,-0.1598,0,-0.0762,-0.0787,-0.0763,-0.0791,-0.0886,-0.1045,-0.1188,-0.136,-0.1481,-0.1402,-0.1619,-0.1577,-0.1582,-0.1553,-0.155,-0.1512,0,0,0,-0.067,-0.0678,-0.0625,-0.0684,-0.0787,-0.0997,-0.1223,-0.1262,-0.1413,-0.1522,-0.1547,-0.1561,-0.1738,-0.1779,-0.1765,-0.1761,-0.1726,0,0]},{"header":{"parameterUnit":"m.s-1","parameterCategory":2,"la1":30.2992,"la2":30.254,"lo1":-89.0895,"lo2":-89.0443,"dy":0.0025,"dx":0.0025,"nx":19,"ny":19,"refTime":"2026-03-25T21:00:00:Z","depth":"4","parameterNumber":3,"parameterNumberName":"V-component_of_CURRENTS"},"data":[0,0,0,0.0009,0.0009,0.0025,0.0025,0.004,0.004,0,0,0,0,0,0,0,0,0,0,0,0.0004,0.0004,0.0009,0.0009,0.0025,0.0025,0.004,0.004,0,0,0,0,0,0,0,0,0,0,0,0.0004,0.0004,0.0005,0.0009,0.0025,0.0025,0.004,0.0031,0,0,0,0,0,0,0,0,0,0,0.0017,0.0011,0.0004,0.0005,0.0009,0.0024,0.0025,0.003,0.0031,0.0031,0,0.0031,0,0.0034,0.0041,0.0041,0,0,0,0.0013,0.0011,0.0014,0.0005,0.0009,0.0024,0.0019,0.0031,0.0032,0.0032,0.0032,0.0032,0.0034,0.0041,0.0041,0.0031,0.0031,0,0,0.0012,0.0009,0.0013,0.0014,0.0011,0.0018,0.0019,0.0032,0.0032,0.0032,0.0033,0.0034,0.0041,0.0041,0.0031,0.0031,0,0,0,0.0007,0.0008,0.0011,0.0014,0.0016,0.0019,0.002,0.0031,0.0032,0.0033,0.0035,0.0041,0.0041,0.0031,0.0031,-0.0043,0,0,0,0.0007,0.0005,0.0011,0.0009,0.0015,0.0024,0.0019,0.0031,0.0033,0.0035,0.0041,0.0041,0.0032,0.0031,-0.0041,-0.0103,0,0,0,0.0004,0.0005,0.0005,0.0009,0.0013,0.0024,0.0026,0.0032,0.0034,0.0041,0.0041,0.0032,0.0031,-0.0039,-0.0098,-0.0098,0,0,0,0.0001,-0.0018,0.0005,-0.0026,0.0013,-0.0019,0.0026,0.0015,0.0015,0.0041,0.0032,0.0031,-0.0038,-0.0094,-0.0095,-0.0075,0,0,0,-0.003,-0.0022,-0.0045,-0.0024,-0.0078,-0.0021,-0.0063,-0.0032,0.0012,0.0029,0.0028,-0.0042,-0.0097,-0.0097,-0.0099,0,0,0,0,-0.0061,-0.008,-0.0092,-0.0116,-0.012,-0.013,-0.0091,-0.0062,-0.0033,0.0012,-0.0029,-0.0062,-0.0059,-0.0039,0.0029,0.0029,0.0029,0.0029,0.0029,-0.0105,-0.0125,-0.0183,-0.0208,-0.0223,-0.0203,-0.0201,-0.0151,-0.0092,-0.0078,-0.0112,-0.0155,-0.0136,-0.0083,-0.0083,-0.0084,-0.0084,-0.0084,-0.0084,-0.0184,-0.0224,-0.026,-0.0321,-0.0328,-0.0348,-0.0307,-0.0256,-0.0223,-0.0165,-0.0157,-0.0108,-0.0091,-0.009,-0.0089,-0.0088,-0.0088,-0.0087,-0.0087,-0.0217,-0.0242,-0.0288,-0.0388,-0.0441,-0.0434,-0.0461,-0.0406,-0.0308,-0.0315,-0.0236,-0.02,-0.0204,-0.0279,-0.0279,-0.028,-0.028,-0.028,-0.028,-0.0223,-0.0276,-0.0366,-0.0457,-0.0518,-0.0563,-0.0547,-0.0505,-0.041,-0.0338,-0.0322,-0.022,-0.0213,-0.0214,-0.0285,-0.0284,-0.0283,-0.0283,-0.0283,-0.0258,-0.0285,-0.0419,-0.05,-0.0637,-0.0665,-0.0657,-0.0538,-0.049,-0.0397,-0.0329,-0.0325,-0.0294,-0.0286,-0.0288,-0.0383,-0.0383,-0.0383,0,-0.0268,-0.0298,-0.0471,-0.0604,-0.0707,-0.0724,-0.0666,-0.0591,-0.0461,-0.0465,-0.0471,-0.0402,-0.0396,-0.0366,-0.0358,-0.0364,0,0,0,-0.03,-0.0351,-0.0469,-0.0613,-0.0733,-0.0679,-0.0647,-0.0596,-0.0498,-0.0403,-0.0384,-0.0384,-0.0326,-0.0298,-0.0241,-0.0233,-0.0231,0,0]}]]